C31FR-13 Weather Reports


time (UTC)temp
C
wind
direction
speed
KPH
gust
KPH
rain 1hr
cm
rain 24hr
cm
rain mn
cm
humidity
%
barometer
mb
20260504151102 13 0.0 0.0 0.00 0.00 0.00 94 1011.7
20260504150602 13 0.0 0.0 0.00 0.00 0.00 94 1011.8
20260504141102 14 0.0 0.0 0.00 0.00 0.00 84 1011.6
20260504140602 15 0.0 0.0 0.00 0.00 0.00 82 1011.6
20260504130603 13 0.0 0.0 0.00 0.00 0.00 77 1012.7
20260504130103 14 0.0 0.0 0.00 0.00 0.00 78 1012.6
20260504110603 16 0.0 0.0 0.00 0.00 0.00 50 1012.0
20260504100603 16 0.0 0.0 0.00 0.00 0.00 56 1012.7
20260504081603 13 0.0 0.0 0.00 0.00 0.00 78 1013.7
20260504081102 13 0.0 0.0 0.00 0.00 0.00 79 1013.7
20260504080602 13 0.0 0.0 0.00 0.00 0.00 87 1013.8
20260504070103 12 0.0 0.0 0.00 0.00 0.00 96 1014.3
20260504044102 11 0.0 0.0 0.00 0.00 0.00 97 1013.8
20260504043603 11 0.0 0.0 0.00 0.00 0.00 98 1013.8
20260504043103 11 0.0 0.0 0.00 0.00 0.00 96 1013.8
20260504042602 11 0.0 0.0 0.00 0.00 0.00 93 1013.9
20260504042102 11 0.0 0.0 0.00 0.00 0.00 91 1013.9
20260504041603 12 0.0 0.0 0.00 0.00 0.00 89 1013.8
20260504041103 11 0.0 0.0 0.00 0.00 0.00 89 1013.8
20260504040602 12 0.0 0.0 0.00 0.00 0.00 89 1013.8
20260504040103 12 0.0 0.0 0.00 0.00 0.00 89 1013.8
20260504035602 11 0.0 0.0 0.00 0.00 0.00 91 1013.9
20260504034602 12 0.0 0.0 0.00 0.00 0.00 89 1013.8
20260504034102 12 0.0 0.0 0.00 0.00 0.00 86 1013.8
20260504033602 12 0.0 0.0 0.00 0.00 0.00 88 1013.9
20260504033102 12 0.0 0.0 0.00 0.00 0.00 90 1013.9
20260504032602 12 0.0 0.0 0.00 0.00 0.00 89 1013.9
20260504032102 12 0.0 0.0 0.00 0.00 0.00 91 1014.0
20260504031603 12 0.0 0.0 0.00 0.00 0.00 87 1014.0
20260504031102 12 0.0 0.0 0.00 0.00 0.00 89 1014.1
20260504030602 11 0.0 0.0 0.00 0.00 0.00 90 1014.1
20260504025602 12 0.0 0.0 0.00 0.00 0.00 86 1014.0
20260504025103 12 0.0 0.0 0.00 0.00 0.00 87 1014.0
20260504024102 12 0.0 0.0 0.00 0.00 0.00 88 1014.0
20260504023602 12 0.0 0.0 0.00 0.00 0.00 89 1014.1
20260504023103 12 0.0 0.0 0.00 0.00 0.00 88 1014.1
20260504022602 12 0.0 0.0 0.00 0.00 0.00 90 1014.1
20260504022102 12 0.0 0.0 0.00 0.00 0.00 90 1014.0
20260504021602 12 0.0 0.0 0.00 0.00 0.00 91 1014.0
20260504021103 12 0.0 0.0 0.00 0.00 0.00 91 1014.1
20260504020603 11 0.0 0.0 0.00 0.00 0.00 93 1014.0
20260504015604 11 0.0 0.0 0.00 0.00 0.00 93 1014.3
20260504015102 12 0.0 0.0 0.00 0.00 0.00 90 1014.3
20260504014602 12 0.0 0.0 0.00 0.00 0.00 86 1014.3
20260504014103 11 0.0 0.0 0.00 0.00 0.00 90 1014.3
20260504013603 11 0.0 0.0 0.00 0.00 0.00 93 1014.4
20260504013102 11 0.0 0.0 0.00 0.00 0.00 93 1014.3
20260504012102 11 0.0 0.0 0.00 0.00 0.00 89 1014.3
20260504011602 11 0.0 0.0 0.00 0.00 0.00 89 1014.3
20260504011102 12 0.0 0.0 0.00 0.00 0.00 87 1014.2
20260504010602 12 0.0 0.0 0.00 0.00 0.00 88 1014.2
20260504005606 12 0.0 0.0 0.00 0.00 0.00 89 1014.3
20260504004603 12 0.0 0.0 0.00 0.00 0.00 88 1014.3
20260504004103 12 0.0 0.0 0.00 0.00 0.00 87 1014.4
20260504003602 11 0.0 0.0 0.00 0.00 0.00 88 1014.5
20260504003102 12 0.0 0.0 0.00 0.00 0.00 92 1014.6
20260504002603 12 0.0 0.0 0.00 0.00 0.00 91 1014.6
20260504002103 12 0.0 0.0 0.00 0.00 0.00 90 1014.7
20260504001602 12 0.0 0.0 0.00 0.00 0.00 88 1014.7
20260504001102 12 0.0 0.0 0.00 0.00 0.00 91 1014.6
20260503235602 12 0.0 0.0 0.00 0.00 0.00 92 1014.6
20260503235102 12 0.0 0.0 0.00 0.00 0.00 93 1014.6
20260503234603 12 0.0 0.0 0.00 0.00 0.00 93 1014.6
20260503234102 12 0.0 0.0 0.00 0.00 0.00 89 1014.7
20260503233602 12 0.0 0.0 0.00 0.00 0.00 88 1014.8
20260503233102 11 0.0 0.0 0.00 0.00 0.00 90 1014.8
20260503232602 12 0.0 0.0 0.00 0.00 0.00 90 1014.8
20260503232102 12 0.0 0.0 0.00 0.00 0.00 90 1014.8
20260503231602 12 0.0 0.0 0.00 0.00 0.00 87 1014.8
20260503231103 12 0.0 0.0 0.00 0.00 0.00 87 1014.8
20260503230602 12 0.0 0.0 0.00 0.00 0.00 89 1014.8
20260503225603 12 0.0 0.0 0.00 0.00 0.00 89 1014.9
20260503225102 12 0.0 0.0 0.00 0.00 0.00 88 1014.8
20260503224603 12 0.0 0.0 0.00 0.00 0.00 88 1014.9
20260503224103 12 0.0 0.0 0.00 0.00 0.00 88 1014.9
20260503223602 12 0.0 0.0 0.00 0.00 0.00 88 1015.0
20260503223102 12 0.0 0.0 0.00 0.00 0.00 87 1014.9
20260503222603 12 0.0 0.0 0.00 0.00 0.00 85 1015.0
20260503222103 12 0.0 0.0 0.00 0.00 0.00 87 1015.0
20260503221602 12 0.0 0.0 0.00 0.00 0.00 87 1015.0
20260503220602 12 0.0 0.0 0.00 0.00 0.00 87 1015.0
20260503220103 12 0.0 0.0 0.00 0.00 0.00 91 1015.0
20260503215602 12 0.0 0.0 0.00 0.00 0.00 91 1015.0
20260503215102 12 0.0 0.0 0.00 0.00 0.00 93 1015.1
20260503214602 12 0.0 0.0 0.00 0.00 0.00 91 1015.1
20260503214103 12 0.0 0.0 0.00 0.00 0.00 88 1015.2
20260503213602 12 0.0 0.0 0.00 0.00 0.00 91 1015.2
20260503213102 12 0.0 0.0 0.00 0.00 0.00 87 1015.2
20260503212103 12 0.0 0.0 0.00 0.00 0.00 90 1015.1
20260503211602 12 0.0 0.0 0.00 0.00 0.00 88 1015.1
20260503211102 12 0.0 0.0 0.00 0.00 0.00 87 1015.1
20260503210824 12 0.0 0.0 0.00 0.00 0.00 90 1015.1
20260503205602 12 0.0 0.0 0.00 0.00 0.00 89 1015.0
20260503205103 12 0.0 0.0 0.00 0.00 0.00 88 1015.0
20260503204602 12 0.0 0.0 0.00 0.00 0.00 85 1014.9
20260503204101 12 0.0 0.0 0.00 0.00 0.00 81 1014.9
20260503203603 11 0.0 0.0 0.00 0.00 0.00 82 1014.9
20260503203104 11 0.0 0.0 0.00 0.00 0.00 83 1014.8
20260503202102 11 0.0 0.0 0.00 0.00 0.00 80 1014.8
20260503201603 12 0.0 0.0 0.00 0.00 0.00 77 1014.7
20260503201102 12 0.0 0.0 0.00 0.00 0.00 79 1014.7
20260503195603 12 0.0 0.0 0.00 0.00 0.00 78 1014.6
20260503195102 12 0.0 0.0 0.00 0.00 0.00 76 1014.5
20260503194602 12 0.0 0.0 0.00 0.00 0.00 80 1014.4
20260503194102 12 0.0 0.0 0.00 0.00 0.00 82 1014.4
20260503193603 12 0.0 0.0 0.00 0.00 0.00 85 1014.2
20260503193102 12 0.0 0.0 0.00 0.00 0.00 85 1014.0
20260503192603 12 0.0 0.0 0.00 0.00 0.00 85 1013.9
20260503192102 12 0.0 0.0 0.00 0.00 0.00 87 1013.9
20260503191602 12 0.0 0.0 0.00 0.00 0.00 86 1013.8
20260503191102 12 0.0 0.0 0.00 0.00 0.00 85 1013.6
20260503190604 12 0.0 0.0 0.00 0.00 0.00 85 1013.4
20260503185602 12 0.0 0.0 0.00 0.00 0.00 86 1013.1
20260503185103 13 0.0 0.0 0.00 0.00 0.00 87 1013.0
20260503184603 13 0.0 0.0 0.00 0.00 0.00 86 1013.0
20260503184102 13 0.0 0.0 0.00 0.00 0.00 85 1012.9
20260503183602 13 0.0 0.0 0.00 0.00 0.00 87 1012.9
20260503183103 13 0.0 0.0 0.00 0.00 0.00 88 1012.9
20260503182602 13 0.0 0.0 0.00 0.00 0.00 86 1013.0
20260503182102 13 0.0 0.0 0.00 0.00 0.00 86 1013.0
20260503181602 13 0.0 0.0 0.00 0.00 0.00 87 1013.0
20260503181102 13 0.0 0.0 0.00 0.00 0.00 87 1013.1
20260503180602 13 0.0 0.0 0.00 0.00 0.00 85 1013.1
20260503175103 13 0.0 0.0 0.00 0.00 0.00 89 1013.2
20260503174602 14 0.0 0.0 0.00 0.00 0.00 84 1013.2
20260503174103 13 0.0 0.0 0.00 0.00 0.00 91 1013.3
20260503173602 13 0.0 0.0 0.00 0.00 0.00 91 1013.3
20260503173103 13 0.0 0.0 0.00 0.00 0.00 91 1013.3
20260503172603 13 0.0 0.0 0.00 0.00 0.00 91 1013.3
20260503172102 13 0.0 0.0 0.00 0.00 0.00 91 1013.4
20260503171602 13 0.0 0.0 0.00 0.00 0.00 89 1013.3
20260503171103 13 0.0 0.0 0.00 0.00 0.00 87 1013.3
20260503170602 13 0.0 0.0 0.00 0.00 0.00 86 1013.4